Regional Weather Roundup
Issued by NWS

Home | Current Version | Previous Version | Graphics & Text | Print | Product List | Glossary On
Versions: 1 2 3 4 5 6 7 8 9 10 11 12 13 14 15 16 17 18 19 20 21 22 23 24 25 26 27 28 29 30 31 32 33 34 35 36 37 38 39 40 41 42 43 44 45 46 47 48 49 50
582
ASUS43 KLOT 041708
RWRIL

ILLINOIS REGIONAL WEATHER ROUNDUP
NATIONAL WEATHER SERVICE CHICAGO/ROMEOVILLE IL
1200 PM CDT WED MAY 04 2016

NOTE: "FAIR" INDICATES FEW OR NO CLOUDS BELOW 12,000 FEET WITH NO
SIGNIFICANT WEATHER AND/OR OBSTRUCTIONS TO VISIBILITY.

* THESE STATIONS ARE NOT UNDER NWS QUALITY CONTROL. THEY ALSO MAY NOT
  REPORT WEATHER SUCH AS PRECIPITATION OR FOG.

ILZ001-002-007-009-015-016-024-041800-
NORTHWEST ILLINOIS

CITY           SKY/WX    TMP DP  RH WIND       PRES   REMARKS
MOLINE         PTSUNNY   58  40  51 NW17G28   29.85S
STERLING*      PTSUNNY   54  41  62 N15G22    29.84R
SAVANNA*       PTSUNNY   55  37  51 N12       29.85F
$$

ILZ003-004-008-010-011-017-018-041800-
NORTH CENTRAL ILLINOIS

CITY           SKY/WX    TMP DP  RH WIND       PRES   REMARKS
ROCKFORD       CLOUDY    52  37  56 N16G26    29.84R
FREEPORT*      PTSUNNY   54  41  60 N21G26    29.84S
ROCHELLE*      PTSUNNY   52  40  64 N20G25    29.82R
DE KALB*       CLOUDY    49  40  69 N18G26    29.81S
$$

ILZ005-006-012>014-019>023-041800-
NORTHEAST ILLINOIS

CITY           SKY/WX    TMP DP  RH WIND       PRES   REMARKS
CHICAGO-OHARE  CLOUDY    50  37  61 NW17      29.78R
CHICAGO-MIDWAY CLOUDY    50  35  56 N13       29.78R
AURORA         CLOUDY    51  39  63 N18G28    29.80R
LANSING*       CLOUDY    49  37  62 N16G28    29.78R
JOLIET*        CLOUDY    54  40  60 NW12G22   29.79R
WAUKEGAN       CLOUDY    49  36  61 N12G17    29.78R
DUPAGE AIRPORT CLOUDY    49  36  61 NW18      29.79R
KANKAKEE*      CLOUDY    49  38  66 NE12G18   29.78R
WHEELING       CLOUDY    49  36  61 N13       29.79R
MORRIS*        PTSUNNY   53  40  61 N14G21    29.79R
ROMEOVILLE*    CLOUDY    52  40  62 N17       29.78R
NORTHERLY ISL    N/A     48  36  63 N18         N/A
NORTHERLY ISL    N/A     48  36  63 N18         N/A
$$

LMZ740>746-041800-
SOUTHERN LAKE MICHIGAN

STATION/POSITION SKY/WX   TEMP    WIND        PRES    VSBY  WAVE
                          AIR SEA DIR/SP/G                  HT/PER
                          (F)     (DEG/KT/KT) (MB)    (MI)  (FT/S)
SOUTHERN BUOY              41 40  360/ 25/ 31 1006.7R         7/ 6
WILMETTE HARBOR            44 44   20/ 17/ 23   N/A           5/ 6
HARRISON CRIB              46     350/ 21/ 24   N/A
BURNHAM HARBOR             48     330/ 13/ 21   N/A
CALUMET HARBOR             46     340/ 18/ 28 1007.6R
BURNS HARBOR               45     340/ 22     1007.8R
MICHIGAN CITY              43     320/ 28/ 30   N/A
ST. JOSEPH                 43 47                N/A          10/ 7
$$

ILZ025>027-034>036-040-047-049-050-058-095>099-041800-
WEST-CENTRAL ILLINOIS

CITY           SKY/WX    TMP DP  RH WIND       PRES   REMARKS
QUINCY         PTSUNNY   62  42  47 N20G31    29.88R
GALESBURG*     MOSUNNY   58  43  57 N22G28    29.85S
MACOMB*        PTSUNNY   59  46  60 N20G28    29.89R
JACKSONVILLE*  PTSUNNY   62  45  53 N18G25    29.84R
PITTSFIELD*    PTSUNNY   61  45  56 N20G25    29.87R
$$

ILZ028>032-037-038-041>044-048-051>054-059>061-041800-
CENTRAL ILLINOIS

CITY           SKY/WX    TMP DP  RH WIND       PRES   REMARKS
PONTIAC        PTSUNNY   56  45  67 NW23G29   29.80R
BLOOMINGTON    PTSUNNY   56  44  64 N21G26    29.81R
DECATUR        PTSUNNY   58  44  60 N15       29.79R
PEORIA         PTSUNNY   56  41  57 N17G26    29.83R
LACON*           N/A    N/A N/A N/A MISG        N/A
LINCOLN*       PTSUNNY   58  45  62 N14G23    29.81R
SPRINGFIELD    MOSUNNY   61  46  57 N18G30    29.83R
TAYLORVILLE    PTSUNNY   58  47  66 NW18      29.82R
$$

ILZ033-039-045-046-055>057-062-063-041800-
EAST-CENTRAL ILLINOIS

CITY           SKY/WX    TMP DP  RH WIND       PRES   REMARKS
CHAMPAIGN      PTSUNNY   58  44  60 N17       29.77R
RANTOUL*       CLOUDY    58  44  60 NW20      29.76S
MATTOON        MOSUNNY   59  44  57 N18G31    29.76R
PARIS*         CLOUDY    56  45  64 N10       29.77R
$$

ILZ079-100>102-041800-
SOUTHWEST ILLINOIS

CITY           SKY/WX    TMP DP  RH WIND       PRES   REMARKS
ALTON          PTSUNNY   64  45  48 N16G25    29.83R
BELLEVILLE     MOSUNNY   65  47  51 N10G21    29.80R
CAHOKIA*       MOSUNNY   66  44  45 N24G30    29.82R
SPARTA*        MOSUNNY   65  47  51 N16G24    29.80R
$$

ILZ064>066-069>071-074>076-080>082-084>086-088>090-092>094-041800-
SOUTH-CENTRAL ILLINOIS

CITY           SKY/WX    TMP DP  RH WIND       PRES   REMARKS
CARBONDALE     MOSUNNY   66  50  56 N14G21    29.77R
CAIRO*         CLOUDY    65  52  62 W10       29.77R
EFFINGHAM*     PTSUNNY   61  47  61 NW14G24   29.79R
MARION         PTSUNNY   66  52  59 NW17G28   29.77R
MT. VERNON     PTSUNNY   63  46  55 NW8G18    29.77R
CENTRALIA*     MOSUNNY   65  49  56 N21G28    29.77R
SALEM*         PTSUNNY   64  46  53 N15G24    29.78R
METROPOLIS*    MOSUNNY   64  55  71 W13       29.77R
$$

ILZ067-068-072-073-078-083-087-091-041800-
SOUTHEAST ILLINOIS

CITY           SKY/WX    TMP DP  RH WIND       PRES   REMARKS
LAWRENCEVILLE  MOSUNNY   62  48  60 N20G26    29.74R
FLORA*         PTSUNNY   64  46  52 N15G24    29.77R
FAIRFIELD*     PTSUNNY   63  48  59 N12G18    29.75R
HARRISBURG*    PTSUNNY   65  53  64 N12G20    29.75R
ROBINSON*      PTSUNNY   59  47  65 N15G21    29.75R
CARMI*         PTSUNNY   63  53  71 N16       29.74R
$$

ABBREVIATIONS USED IN REMARKS
   TC - TEMPERATURE IN CELSIUS
  WCI - WIND CHILL INDEX
   HX - HEAT INDEX
  VSB - VISIBILITY
$$





USA.gov is the U.S. government's official web portal to all federal, state and local government web resources and services.